PST,Max TemperatureF,Mean TemperatureF,Min TemperatureF,Max Dew PointF,MeanDew PointF,Min DewpointF,Max Humidity, Mean Humidity, Min Humidity, Max Sea Level PressureIn, Mean Sea Level PressureIn, Min Sea Level PressureIn, Max VisibilityMiles, Mean VisibilityMiles, Min VisibilityMiles, Max Wind SpeedMPH, Mean Wind SpeedMPH, Max Gust SpeedMPH,PrecipitationIn, CloudCover, Events, WindDirDegrees
2012-11-1,66,62,58,56,53,52,86,75,63,30.04,30.00,29.96,10,7,4,8,3,12,0.00,7,,318
2012-11-2,70,63,56,55,53,51,93,74,55,30.09,30.05,30.01,10,4,0,8,2,12,0.00,6,Fog,69
2012-11-3,75,63,51,54,51,48,89,68,46,30.16,30.11,30.07,10,6,2,7,1,,0.00,3,,318
2012-11-4,78,65,51,53,51,48,83,61,39,30.23,30.18,30.13,10,7,3,8,2,,0.00,1,,63
2012-11-5,82,67,52,54,51,48,83,60,36,30.19,30.12,30.06,10,7,4,7,1,21,0.00,0,,68
2012-11-6,85,69,53,54,51,47,83,56,29,30.11,30.05,29.98,10,8,3,7,1,22,0.00,0,,323
2012-11-7,83,69,54,52,49,46,72,50,28,30.04,29.96,29.89,10,8,3,7,2,13,0.00,0,,256
2012-11-8,64,57,49,48,42,35,83,60,36,29.96,29.91,29.86,10,9,7,23,9,28,0.01,5,Rain,330
2012-11-9,56,49,42,44,40,36,96,72,47,30.01,29.95,29.92,10,8,0,12,3,16,0.09,5,Fog-Rain,39
2012-11-10,58,50,41,40,36,30,83,61,38,30.25,30.12,30.02,10,10,9,10,4,,0.01,4,Rain,18
2012-11-11,60,49,37,35,32,25,85,55,25,30.40,30.35,30.26,10,9,6,7,2,13,0.00,1,,31
2012-11-12,64,51,38,36,33,28,82,54,26,30.40,30.33,30.25,10,9,7,10,2,16,0.00,1,,291
2012-11-13,67,53,38,39,35,33,79,54,29,30.29,30.20,30.12,10,9,6,6,1,18,0.00,3,,162
2012-11-14,71,56,40,42,38,35,79,54,28,30.17,30.10,30.04,9,7,5,6,1,,0.00,3,,81
2012-11-15,72,57,42,50,40,36,76,54,31,30.06,30.03,29.98,10,6,4,17,4,23,T,5,,127
2012-11-16,74,66,58,51,46,39,67,48,29,30.05,30.01,29.96,10,9,6,17,4,20,T,7,Rain,127
2012-11-17,69,64,58,56,53,49,86,72,57,30.06,29.99,29.93,10,10,4,15,7,18,0.27,7,Rain,97
2012-11-18,68,60,52,53,51,49,89,72,55,30.18,30.12,30.06,10,10,8,12,5,15,T,5,Rain,122
2012-11-19,69,59,49,52,47,41,96,68,40,30.28,30.22,30.17,10,5,0,6,2,,0.00,5,Fog,149
2012-11-20,70,59,48,49,46,44,86,63,40,30.22,30.15,30.09,10,9,7,5,1,12,0.00,2,,73
2012-11-21,71,60,48,52,47,43,86,62,37,30.18,30.13,30.10,10,10,7,17,6,20,0.00,4,,346
2012-11-22,62,54,46,52,48,44,96,82,67,30.26,30.21,30.16,10,3,0,12,2,13,0.00,4,Fog,311
2012-11-23,67,55,43,51,46,41,100,76,52,30.30,30.24,30.18,8,2,0,5,1,,0.00,4,Fog,145
2012-11-24,69,56,42,51,46,40,100,75,49,30.21,30.15,30.04,10,3,0,7,1,25,0.00,3,Fog,267
2012-11-25,67,55,42,51,47,41,96,76,56,30.03,29.99,29.93,5,4,2,7,2,22,0.00,1,,206
2012-11-26,69,56,43,50,46,40,93,70,47,30.08,30.04,30.00,5,3,2,6,1,17,0.00,1,,39
2012-11-27,65,54,42,49,46,39,89,73,56,30.16,30.08,30.03,3,2,1,7,2,9,0.00,6,,96
2012-11-28,61,55,48,54,48,43,86,73,60,30.10,30.05,29.97,10,6,2,18,7,25,0.11,5,Rain,106
2012-11-29,69,62,55,57,54,52,93,73,53,30.16,30.10,30.05,10,10,10,14,7,,T,8,Rain,125
2012-11-30,64,61,57,57,55,52,93,83,72,30.11,30.03,29.97,10,8,2,17,8,,0.62,7,Rain,106